Flag for India Weather past 2 weeks in Kattoor, Kerala, India

70 °F


Feels Like: 70 °F
Forecast: 73 / 90 °F
Wind: No wind

Location: Coimbatore / Peelamedu

Current Time: Nov 29, 2015 at 4:31:32 AM

Latest Report: Nov 29, 2015 at 3:30 AM

Visibility: 2 mi

Pressure: 29.95 "Hg

Humidity: 88%

Dew point: 66 °F

Location of KattoorLocation

Historic Weather in Kattoor — Graph


Kattoor temperature yesterday

Maximum temperature yesterday: 88 °F (at 1:30 PM)
Minimum temperature yesterday: 72 °F (at 5:30 AM)
Average temperature yesterday: 78 °F

Past Weeks' High & Low Weather Summary

High88 °F (Nov 27, 3:00 PM)100% (Nov 15, 6:30 AM)30.04 "Hg (Nov 15, 6:30 AM)
Low68 °F (Nov 14, 5:30 AM)43% (Nov 26, 1:30 PM)29.77 "Hg (Nov 16, 2:00 PM)
Average77 °F80%29.90 "Hg
* Reported Nov 14 2:30 AM — Nov 29 3:00 AM, Kattoor, Weather by CustomWeather, © 2015

Note: Actual official high and low records may vary slightly from our data, if they occured in-between our weather recording intervals... More about our weather records


Kattoor weather history for previous 24 hours

Time TempWeatherWind HumidityBarometerVisibility
3:00 AM
Sun, Nov 29
70 °FFog.No wind88%29.95 "Hg2 mi
11:30 PM
Sat, Nov 28
72 °FFog.3 mph83%30.01 "Hg2 mi
11:00 PM73 °FFog.No wind78%30.04 "Hg2 mi
10:30 PM73 °FFog.No wind78%30.04 "Hg2 mi
10:00 PM75 °FPassing clouds.No wind65%30.04 "Hg3 mi
9:30 PM75 °FPassing clouds.No wind65%30.04 "Hg3 mi
9:00 PM75 °FPassing clouds.5 mph65%30.01 "Hg3 mi
8:30 PM75 °FPassing clouds.5 mph65%30.01 "Hg3 mi
8:00 PM77 °FPassing clouds.No wind57%30.01 "Hg3 mi
7:30 PM77 °FPassing clouds.6 mph57%29.98 "Hg3 mi
7:00 PM79 °FPassing clouds.5 mph51%29.95 "Hg3 mi
6:30 PM81 °FPassing clouds.6 mph48%29.95 "Hg3 mi
6:00 PM82 °FScattered clouds.7 mph45%29.92 "Hg3 mi
5:30 PM84 °FScattered clouds.9 mph43%29.92 "Hg3 mi
5:00 PM86 °FHaze.9 mph46%29.92 "Hg3 mi
4:30 PM86 °FHaze.9 mph49%29.89 "Hg3 mi
3:30 PM86 °FHaze.8 mph49%29.89 "Hg3 mi
3:00 PM88 °FHaze.5 mph49%29.89 "Hg3 mi
2:30 PM88 °FHaze.7 mph49%29.92 "Hg3 mi
1:30 PM88 °FHaze.8 mph52%29.92 "Hg3 mi
12:00 PM84 °FHaze.2 mph58%29.98 "Hg2 mi
11:30 AM82 °FHaze.No wind62%29.98 "Hg2 mi
11:00 AM81 °FHaze.3 mph66%30.01 "Hg2 mi
10:30 AM81 °FHaze.2 mph66%30.01 "Hg2 mi
9:30 AM77 °FFog.No wind79%30.01 "Hg1 mi
9:00 AM75 °FFog.No wind83%30.01 "Hg1 mi
8:30 AM75 °FFog.5 mph83%29.98 "Hg1 mi
8:00 AM73 °FFog.5 mph89%29.98 "Hg1 mi
7:30 AM73 °FFog.6 mph89%29.95 "Hg1 mi
6:30 AM72 °FFog.3 mph88%29.95 "Hg2 mi
5:30 AM72 °FFog.No wind88%29.92 "Hg2 mi
5:00 AM75 °FPassing clouds.No wind78%29.92 "Hg2 mi
4:30 AM75 °FPassing clouds.No wind78%29.92 "Hg2 mi
4:00 AM75 °FPassing clouds.No wind78%29.92 "Hg2 mi
Weather by CustomWeather, © 2015

See weather overviewHow to use our weather pages